Fulton, NY

7:45 PM EDT on October 13, 2019 (GMT -0400)
Oswego County

Weather History for KFZY - May, 2019

Change the Weather History Date:

Tuesday, May 28, 2019

  Actual Average (KSYR) Record (KSYR)
Temperature  
Mean Temperature 56 °F -  
Max Temperature 61 °F 73 °F 91 °F (1911)
Min Temperature 50 °F 49 °F 35 °F (1983)
Degree Days  
Heating Degree Days 10    
Growing Degree Days 6 (Base 50)    
Moisture  
Dew Point 50 °F    
Average Humidity 84    
Maximum Humidity 90    
Minimum Humidity 64    
Precipitation  
Precipitation 0.25 in - - ()
Sea Level Pressure  
Sea Level Pressure 29.73 in    
Wind  
Wind Speed 5 mph (NW)    
Max Wind Speed 12 mph    
Max Gust Speed -    
Visibility 10 miles    
Events Rain    
Averages and records for this station are not official NWS values.
T = Trace of Precipitation, MM = Missing Value Source: NWS Daily Summary

Daily Weather History Graph

Daily Weather History Graph

Search for Another Location

Airport or City:

Astronomy

May. 28, 2019 Rise Set
Actual Time 5:30 AM EDT 8:35 PM EDT
Civil Twilight 4:56 AM EDT 9:10 PM EDT
Nautical Twilight 4:12 AM EDT 9:54 PM EDT
Astronomical Twilight 3:19 AM EDT 10:47 PM EDT
Moon 2:54 AM EDT (5/28) 2:31 PM EDT (5/28)
Length of Visible Light 16h 14m
Length of Day
15h 05m
Waning Crescent, 32% of the Moon is Illuminated
May 28
Waning Crescent
Jun 3
New
Jun 10
First Quarter
Jun 17
Full
Jun 25
Last Quarter

Hourly Weather History & Observations

Time (EDT) Temp. Dew Point Humidity Pressure Visibility Wind Dir Wind Speed Gust Speed Precip Events Conditions
12:54 AM 54.0 °F 48.9 °F 83% 29.93 in 10.0 mi East 3.5 mph - N/A   Overcast
1:54 AM 57.0 °F 48.9 °F 74% 29.93 in 10.0 mi Calm Calm - N/A   Overcast
2:54 AM 57.0 °F 46.9 °F 69% 29.91 in 10.0 mi North - - N/A   Scattered Clouds
3:54 AM 57.0 °F 45.0 °F 64% 29.89 in 10.0 mi Variable 4.6 mph - 0.00 in Rain Light Rain
4:54 AM 54.0 °F 48.9 °F 83% 29.89 in 10.0 mi Calm Calm - 0.04 in Rain Light Rain
5:54 AM 54.0 °F 48.0 °F 80% 29.85 in 10.0 mi Variable 6.9 mph - 0.03 in Rain Light Rain
6:54 AM 54.0 °F 48.0 °F 80% 29.84 in 10.0 mi Variable 4.6 mph - 0.01 in   Overcast
7:54 AM 54.0 °F 46.9 °F 77% 29.81 in 10.0 mi Variable 6.9 mph - N/A   Overcast
8:54 AM 54.0 °F 46.9 °F 77% 29.78 in 10.0 mi Variable 4.6 mph - 0.00 in Rain Light Rain
9:44 AM 52.0 °F 48.0 °F 86% 29.74 in 10.0 mi East 9.2 mph - 0.04 in Rain Rain
9:51 AM 53.6 °F 48.2 °F 82% 29.74 in 10.0 mi Variable 6.9 mph - 0.07 in Rain Heavy Rain
9:54 AM 53.1 °F 48.0 °F 83% 29.74 in 10.0 mi East 9.2 mph - 0.08 in Rain Heavy Rain
10:11 AM 52.0 °F 48.0 °F 86% 29.73 in 10.0 mi Variable 5.8 mph - 0.01 in Rain Light Rain
10:54 AM 53.1 °F 48.0 °F 83% 29.70 in 10.0 mi Variable 6.9 mph - 0.02 in Rain Light Rain
11:54 AM 53.1 °F 48.9 °F 86% 29.67 in 10.0 mi Variable 5.8 mph - 0.05 in Rain Light Rain
12:33 PM 54.0 °F 50.0 °F 86% 29.65 in 10.0 mi ESE 8.1 mph - 0.02 in Rain Light Rain
12:45 PM 54.0 °F 50.0 °F 86% 29.65 in 10.0 mi Variable 4.6 mph - 0.02 in Rain Light Rain
12:54 PM 54.0 °F 51.1 °F 90% 29.65 in 10.0 mi SE 6.9 mph - 0.02 in   Overcast
1:34 PM 55.0 °F 51.1 °F 86% 29.64 in 10.0 mi Variable 3.5 mph - 0.00 in Rain Light Rain
1:54 PM 55.0 °F 51.1 °F 86% 29.65 in 10.0 mi Calm Calm - 0.00 in   Overcast
2:52 PM 55.4 °F 51.8 °F 88% 29.65 in 10.0 mi Variable 3.5 mph - N/A   Overcast
2:54 PM 55.9 °F 52.0 °F 87% 29.65 in 10.0 mi Variable 3.5 mph - N/A   Overcast
3:34 PM 57.0 °F 53.1 °F 87% 29.65 in 10.0 mi SSE 3.5 mph - N/A   Overcast
3:49 PM 57.2 °F 53.6 °F 88% 29.65 in 10.0 mi Variable 3.5 mph - N/A   Overcast
3:54 PM 57.9 °F 54.0 °F 87% 29.65 in 10.0 mi Calm Calm - N/A   Overcast
4:39 PM 60.1 °F 55.0 °F 83% 29.64 in 10.0 mi Calm Calm - N/A   Overcast
4:54 PM 60.1 °F 55.0 °F 83% 29.65 in 10.0 mi Calm Calm - N/A   Overcast
5:54 PM 57.9 °F 53.1 °F 84% 29.67 in 10.0 mi WNW 11.5 mph - N/A   Overcast
6:28 PM 55.0 °F 52.0 °F 89% 29.68 in 10.0 mi West 8.1 mph - N/A   Overcast
6:54 PM 54.0 °F 51.1 °F 90% 29.69 in 10.0 mi NW 6.9 mph - N/A   Overcast
7:54 PM 54.0 °F 50.0 °F 86% 29.70 in 10.0 mi WNW 8.1 mph - N/A   Overcast
8:54 PM 51.1 °F 48.0 °F 89% 29.72 in 10.0 mi WNW 5.8 mph - N/A   Overcast
9:54 PM 51.1 °F 48.0 °F 89% 29.75 in 10.0 mi West 5.8 mph - N/A   Overcast
10:54 PM 51.1 °F 48.0 °F 89% 29.75 in 10.0 mi WNW 6.9 mph - N/A   Overcast
11:54 PM 50.0 °F 46.9 °F 89% 29.76 in 10.0 mi NW 5.8 mph - N/A   Overcast